Regional Weather Roundup
Issued by NWS

Home | Current Version | Previous Version | Text Only | Print | Product List | Glossary Off
Versions: 1 2 3 4 5 6 7 8 9 10 11 12 13 14 15 16 17 18 19 20 21 22 23 24 25 26 27 28 29 30 31 32 33 34 35 36 37 38 39 40 41 42 43 44 45 46 47 48

000
ASUS43 KDMX 272307
RWRIA

WEATHER ROUNDUP FOR IOWA
NATIONAL WEATHER SERVICE DES MOINES IA
600 PM CDT WED MAY 27 2015

NOTE: "FAIR" INDICATES FEW OR NO CLOUDS BELOW 12,000 FEET WITH NO
SIGNIFICANT WEATHER AND/OR OBSTRUCTIONS TO VISIBILITY.

* - THESE STATIONS ARE NOT NWS STATIONS...THUS NOT UNDER NWS
QUALITY CONTROL.  THEY ALSO DO NOT REPORT WEATHER SUCH
AS PRECIPITATION OR FOG.

IAZ001>003-012>014-020>022-031>034-043>046-280000-
   NORTHWEST IOWA

CITY           SKY/WX    TMP DP  RH WIND       PRES   REMARKS
CARROLL *      MOSUNNY   82  52  34 SW9       30.04S HX  81
CHEROKEE *     MOSUNNY   79  50  36 S7        30.01F
DENISON *      SUNNY     81  54  39 SW5       30.02F HX  80
LE MARS *      SUNNY     82  48  30 S8        30.01F HX  81
ORANGE CITY *  SUNNY     79  48  34 SW7       30.02S
SHELDON *      MOSUNNY   82  77  83 S6        30.00F HX  91
SIOUX CITY     MOSUNNY   84  50  30 S10       30.00F HX  82
SPENCER        MOSUNNY   84  47  27 SW7       30.01F HX  82
STORM LAKE *   SUNNY     81  46  30 VRB6      30.04F HX  80
$$

IAZ055>058-069>071-079>083-090>094-280000-
   SOUTHWEST IOWA

CITY           SKY/WX    TMP DP  RH WIND       PRES   REMARKS
ATLANTIC *     SUNNY     81  50  34 SW5       30.04F HX  80
AUDUBON *      SUNNY     82  52  34 SW6       30.06S HX  81
CLARINDA *     SUNNY     81  54  39 S5        30.07F HX  80
COUNCIL BLFS * SUNNY     79  57  47 S8        30.05S HX  80
CRESTON *      MOSUNNY   79  57  47 W6        30.07S HX  80
HARLAN  *      SUNNY     82  48  30 S7G13     30.07F HX  81
LAMONI         MOSUNNY   83  58  42 W6        30.07F HX  83
RED OAK *      SUNNY     82  52  34 SW6       30.05F HX  81
SHENANDOAH *   SUNNY     84  46  26 S6        30.05F HX  82
$$

IAZ047>049-059>061-072>074-084-280000-
   CENTRAL IOWA

CITY           SKY/WX    TMP DP  RH WIND       PRES   REMARKS
AMES           MOSUNNY   80  55  42 SW6       30.04S HX  80
ANKENY *       SUNNY     81  59  47 VRB5      30.04S HX  81
CHARITON *     SUNNY     79  57  47 CALM      30.07S HX  80
DES MOINES     MOSUNNY   82  53  36 W9        30.04F HX  81
GRINNELL*      SUNNY     79  55  44 W5        30.06F
KNOXVILLE *    MOSUNNY   81  54  39 W7G13     30.05S HX  80
MARSHALLTOWN   SUNNY     78  56  46 SW10      30.04S
PELLA *        SUNNY     82  63  51 W5        30.07S HX  83
PERRY *          N/A     81  54  39 SW5       30.04S HX  80
$$

IAZ004>006-015-016-023>025-035-036-280000-
   NORTH CENTRAL IOWA

CITY           SKY/WX    TMP DP  RH WIND       PRES   REMARKS
ALGONA *       SUNNY     82 -27   1 W7        30.02S
CLARION *      SUNNY     82  30  15 SW9       30.02F HX  80
ESTHERVILLE    PTSUNNY   81  45  28 W3        30.00S HX  80
FORT DODGE *   SUNNY     81  55  41 SW3       30.03F HX  80
MASON CITY     SUNNY     82  52  35 W6        30.03S HX  81
FOREST CITY *    N/A     79  50  36 CALM      30.01F
IOWA FALLS *     N/A     81  55  41 W7        30.05S HX  80
$$

IAZ007>011-017>019-026>030-037>042-050>054-066-280000-
   NORTHEAST IOWA

CITY           SKY/WX    TMP DP  RH WIND       PRES   REMARKS
CEDAR RAPIDS   MOSUNNY   78  57  48 SW10      30.04F
CHARLES CITY * SUNNY     81  54  39 SW7       30.03S HX  80
CLINTON *      MOSUNNY   77  59  53 W8        30.08S
DECORAH *      SUNNY     79  55  44 SW5       30.01F
DUBUQUE        SUNNY     76  58  53 W8        30.05F
MONTICELLO *   MOSUNNY   77  59  53 SW12      30.05S
OELWEIN *      SUNNY     79  57  47 W12       30.04F HX  80
WATERLOO       SUNNY     80  57  45 SW8       30.02S HX  80
$$

IAZ064-065-067-068-078-280000-
   EAST CENTRAL IOWA

CITY           SKY/WX    TMP DP  RH WIND       PRES   REMARKS
DAVENPORT      MOSUNNY   78  55  44 NW6       30.07R
IOWA CITY      MOSUNNY   79  55  43 SW7       30.06S
MT. PLEASANT * SUNNY     79  54  41 CALM      30.07S
MUSCATINE *    SUNNY     81  55  41 W3        30.06S HX  80
QUAD CITIES    SUNNY     79  56  45 NW8       30.05S HX  80
$$

IAZ062-063-075>077-085>089-095>099-280000-
   SOUTHEAST IOWA

CITY           SKY/WX    TMP DP  RH WIND       PRES   REMARKS
BURLINGTON     MOSUNNY   79  57  46 VRB6      30.07S HX  80
FAIRFIELD *    SUNNY     79  55  44 VRB5      30.07S
FORT MADISON * SUNNY     79  57  47 CALM      30.08S HX  80
KEOKUK *       SUNNY     79  57  47 CALM      30.07S HX  80
OSKALOOSA *      N/A     79  54  41 SW6       30.07S
CENTERVILLE *  SUNNY     81  81 100 W5        30.09S HX  91
OTTUMWA        SUNNY     79  57  46 W6        30.06R HX  80
WASHINGTON *   SUNNY     79  55  44 W7        30.08S
$$

ABBREVIATIONS USED IN REMARKS
   TC - TEMPERATURES IN CELSIUS
  WCI - WIND CHILL INDEX
   HX - HEAT INDEX
  VSB - VISIBILITY
$$



USA.gov is the U.S. government's official web portal to all federal, state and local government web resources and services.